Regional Weather Roundup
Issued by NWS Little Rock, AR

Home | Current Version | Previous Version | Graphics & Text | Print | Product List | Glossary On
Versions: 1 2 3 4 5 6 7 8 9 10 11 12 13 14 15 16 17 18 19 20 21 22 23 24 25 26 27 28 29 30 31 32 33 34 35 36 37 38 39 40 41 42 43 44 45 46 47 48 49 50
000
ASUS44 KLZK 051605
RWRLZK

WEATHER ROUNDUP FOR ARKANSAS
NATIONAL WEATHER SERVICE LITTLE ROCK AR
1100 AM CDT TUE MAY 05 2015

NOTE: "FAIR" INDICATES FEW OR NO CLOUDS BELOW 12,000 FEET WITH NO
SIGNIFICANT WEATHER AND/OR OBSTRUCTIONS TO VISIBILITY.

ARZ001-003-010-029-051700-
NORTHWEST ARKANSAS

CITY           SKY/WX    TMP DP  RH WIND       PRES   REMARKS
FAYETTEVILLE   PTSUNNY   73  64  73 S20G32    30.15S
FORT SMITH     PTSUNNY   76  60  57 S9G21     30.12S
HARRISON       MOSUNNY   73  62  68 S14G24    30.19S
BENTONVILLE    CLOUDY    73  61  64 S7        30.16S
ROGERS         CLOUDY    73  62  68 SE13G18   30.16F
SILOAM SPGS    PTSUNNY   73  59  60 S15G21    30.16S
SPRINGDALE     PTSUNNY   73  61  64 S14G20    30.17S
$$

ARZ004-005-016-051700-
NORTH CENTRAL ARKANSAS

CITY           SKY/WX    TMP DP  RH WIND       PRES   REMARKS
BATESVILLE     CLOUDY    75  61  60 S8        30.21S
FLIPPIN        PTSUNNY   75  63  64 S8        30.17S
MTN HOME       MOSUNNY   75  62  64 S9        30.19S
$$

ARZ040-041-051700-
WEST CENTRAL ARKANSAS

CITY           SKY/WX    TMP DP  RH WIND       PRES   REMARKS
MENA           PTSUNNY   75  64  69 SE6       30.16S
MOUNT IDA      MOSUNNY   76  62  62 SE10      30.14F
$$

ARZ009-017-025-026-028-051700-
NORTHEAST ARKANSAS

CITY           SKY/WX    TMP DP  RH WIND       PRES   REMARKS
CORNING          N/A     81  59  47 SW13      30.22S
JONESBORO      SUNNY     78  60  53 SW13      30.22R
NEWPORT        SUNNY     82  58  43 S13G18    30.22S
WALNUT RIDGE   SUNNY     75  61  60 SW8       30.22S
BLYTHEVILLE    SUNNY     81  59  47 SW10      30.24R
$$

ARZ022-023-033-042-044-051700-
CENTRAL ARKANSAS

CITY           SKY/WX    TMP DP  RH WIND       PRES   REMARKS
LITTLE ROCK    MOSUNNY   80  53  39 SE15G21   30.19S
N LITTLE ROCK  MOSUNNY   79  59  50 SE10G16   30.19S
JACKSONVILLE   SUNNY     80  58  48 SE8       30.19S
SEARCY         CLOUDY    79  57  46 S8        30.21S
HOT SPRINGS    CLOUDY    75  59  57 S9        30.18R
RUSSELLVILLE   MOSUNNY   77  62  59 SE9       30.16F
$$

ARZ036-051700-
EAST ARKANSAS

CITY           SKY/WX    TMP DP  RH WIND       PRES   REMARKS
WEST MEMPHIS   MOSUNNY   79  58  48 S12       30.22S
$$

ARZ050-053-066-070-073-051700-
SOUTHWEST ARKANSAS

CITY           SKY/WX    TMP DP  RH WIND       PRES   REMARKS
ARKADELPHIA    FAIR      78  63  60 VRB5      30.18R
CAMDEN         MOSUNNY   79  57  47 NE14G23   30.17S
TEXARKANA      MOSUNNY   77  66  68 S12       30.13F
EL DORADO      MOSUNNY   78  58  49 SE12G22   30.17S
DE QUEEN       CLOUDY    73  65  75 SE6       30.12F
$$

ARZ056-057-069-051700-
SOUTHEAST ARKANSAS

CITY           SKY/WX    TMP DP  RH WIND       PRES   REMARKS
PINE BLUFF     SUNNY     79  55  43 S16       30.19S
STUTTGART      SUNNY     82  55  39 S17       30.21R
MONTICELLO     SUNNY     79  56  45 SE9G21    30.20R

$$





USA.gov is the U.S. government's official web portal to all federal, state and local government web resources and services.